Philadelphia Wings Airport, PA

3:32 AM EDT on April 20, 2018 (GMT -0400)
Philadelphia Wings Airport

Weather History for KLOM - November, 2012

Change the Weather History Date:

Wednesday, November 7, 2012

  Actual Average (KPNE) Record (KPNE)
Temperature  
Mean Temperature 36 °F -  
Max Temperature 39 °F 55 °F 73 °F (1996)
Min Temperature 33 °F 37 °F 28 °F (1998)
Degree Days  
Heating Degree Days 29    
Moisture  
Dew Point 30 °F    
Average Humidity 77    
Maximum Humidity 93    
Minimum Humidity 45    
Precipitation  
Precipitation 0.09 in - - ()
Sea Level Pressure  
Sea Level Pressure 29.90 in    
Wind  
Wind Speed 6 mph (North)    
Max Wind Speed 12 mph    
Max Gust Speed 21 mph    
Visibility 9 miles    
Events      
Averages and records for this station are not official NWS values.
T = Trace of Precipitation, MM = Missing Value Source: NWS Daily Summary

Daily Weather History Graph

Daily Weather History Graph

Search for Another Location

Airport or City:

Astronomy

Nov. 07, 2012 Rise Set
Actual Time 6:37 AM EST 4:51 PM EST
Civil Twilight 6:09 AM EST 5:19 PM EST
Nautical Twilight 5:36 AM EST 5:52 PM EST
Astronomical Twilight 5:05 AM EST 6:23 PM EST
Moon No Moon Rise 12:59 PM EST (11/7)
Length of Visible Light 11h 10m
Length of Day
10h 13m
Last Quarter, 43% of the Moon is Illuminated
Nov 7
Last Quarter
Nov 13
New
Nov 20
First Quarter
Nov 28
Full
Dec 6
Last Quarter

Hourly Weather History & Observations

Time (EST) Temp. Windchill Dew Point Humidity Pressure Visibility Wind Dir Wind Speed Gust Speed Precip Events Conditions
12:15 AM 35.6 °F 32.8 °F 24.8 °F 65% 30.04 in 10.0 mi NE 3.5 mph - N/A   Overcast
12:35 AM 35.6 °F 31.7 °F 24.8 °F 65% 30.02 in 10.0 mi NE 4.6 mph - N/A   Mostly Cloudy
12:55 AM 35.6 °F 30.7 °F 26.6 °F 70% 30.00 in 10.0 mi NNE 5.8 mph - N/A   Scattered Clouds
1:15 AM 37.4 °F 32.8 °F 26.6 °F 65% 29.99 in 10.0 mi NNE 5.8 mph - N/A   Clear
1:35 AM 37.4 °F 33.8 °F 26.6 °F 65% 29.98 in 10.0 mi NE 4.6 mph - N/A   Clear
1:55 AM 37.4 °F 32.8 °F 26.6 °F 65% 29.99 in 10.0 mi NNE 5.8 mph - N/A   Scattered Clouds
2:15 AM 35.6 °F 32.8 °F 26.6 °F 70% 29.98 in 10.0 mi NNE 3.5 mph - N/A   Clear
2:35 AM 35.6 °F 32.8 °F 26.6 °F 70% 29.97 in 10.0 mi NNE 3.5 mph - N/A   Clear
2:55 AM 35.6 °F 31.7 °F 26.6 °F 70% 29.96 in 10.0 mi NNE 4.6 mph - N/A   Clear
3:15 AM 35.6 °F 31.7 °F 26.6 °F 70% 29.95 in 10.0 mi NNE 4.6 mph - N/A   Scattered Clouds
3:55 AM 37.4 °F 31.4 °F 26.6 °F 65% 29.93 in 10.0 mi NE 8.1 mph - N/A   Scattered Clouds
4:15 AM 37.4 °F 32.1 °F 26.6 °F 65% 29.93 in 10.0 mi NNE 6.9 mph - N/A   Scattered Clouds
4:35 AM 37.4 °F 30.8 °F 26.6 °F 65% 29.92 in 10.0 mi NNE 9.2 mph 17.3 mph N/A   Clear
4:55 AM 37.4 °F 32.8 °F 24.8 °F 60% 29.92 in 10.0 mi NNE 5.8 mph - N/A   Clear
5:35 AM 37.4 °F 30.3 °F 17.6 °F 45% 29.93 in 10.0 mi NE 10.4 mph - N/A   Scattered Clouds
5:55 AM 37.4 °F 32.1 °F 19.4 °F 48% 29.94 in 10.0 mi NNE 6.9 mph - N/A   Clear
6:15 AM 37.4 °F 32.8 °F 23.0 °F 56% 29.94 in 10.0 mi NNE 5.8 mph - N/A   Scattered Clouds
6:35 AM 37.4 °F 32.1 °F 24.8 °F 60% 29.95 in 10.0 mi NE 6.9 mph - N/A   Scattered Clouds
6:55 AM 37.4 °F 32.1 °F 26.6 °F 65% 29.94 in 10.0 mi NNE 6.9 mph - N/A   Mostly Cloudy
7:15 AM 37.4 °F 33.8 °F 26.6 °F 65% 29.94 in 10.0 mi NNE 4.6 mph - N/A   Overcast
7:35 AM 37.4 °F 34.9 °F 26.6 °F 65% 29.95 in 10.0 mi North 3.5 mph - N/A   Overcast
7:55 AM 37.4 °F 33.8 °F 26.6 °F 65% 29.94 in 10.0 mi North 4.6 mph - N/A   Overcast
8:15 AM 37.4 °F 32.8 °F 28.4 °F 70% 29.94 in 10.0 mi North 5.8 mph - N/A   Overcast
8:35 AM 37.4 °F 32.1 °F 28.4 °F 70% 29.93 in 10.0 mi North 6.9 mph - N/A   Mostly Cloudy
8:55 AM 37.4 °F 32.1 °F 28.4 °F 70% 29.92 in 10.0 mi North 6.9 mph - N/A   Overcast
9:15 AM 39.2 °F 33.6 °F 28.4 °F 65% 29.91 in 10.0 mi North 8.1 mph - N/A   Mostly Cloudy
9:35 AM 39.2 °F 37.0 °F 28.4 °F 65% 29.90 in 10.0 mi North 3.5 mph - N/A   Scattered Clouds
9:55 AM 39.2 °F 34.2 °F 28.4 °F 65% 29.90 in 10.0 mi North 6.9 mph - N/A   Mostly Cloudy
10:15 AM 39.2 °F 35.0 °F 28.4 °F 65% 29.90 in 10.0 mi NNE 5.8 mph 16.1 mph N/A   Overcast
10:35 AM 39.2 °F 33.0 °F 28.4 °F 65% 29.90 in 10.0 mi NNE 9.2 mph - N/A   Overcast
10:55 AM 39.2 °F 33.6 °F 28.4 °F 65% 29.90 in 10.0 mi North 8.1 mph - N/A   Overcast
11:15 AM 39.2 °F 33.0 °F 28.4 °F 65% 29.89 in 10.0 mi North 9.2 mph - N/A   Overcast
11:35 AM 39.2 °F 35.9 °F 28.4 °F 65% 29.89 in 10.0 mi North 4.6 mph - N/A   Mostly Cloudy
11:55 AM 39.2 °F 35.0 °F 28.4 °F 65% 29.88 in 10.0 mi NNE 5.8 mph - N/A   Overcast
12:15 PM 37.4 °F 30.8 °F 28.4 °F 70% 29.88 in 10.0 mi North 9.2 mph - N/A   Overcast
12:35 PM 37.4 °F 32.1 °F 32.0 °F 81% 29.88 in 7.0 mi NNE 6.9 mph 18.4 mph N/A   Overcast
12:55 PM 37.4 °F 32.8 °F 32.0 °F 81% 29.86 in 7.0 mi North 5.8 mph - N/A   Overcast
1:15 PM 37.4 °F 30.8 °F 32.0 °F 81% 29.86 in 5.0 mi North 9.2 mph 20.7 mph 0.01 in   Overcast
1:35 PM 37.4 °F 31.4 °F 32.0 °F 81% 29.86 in 7.0 mi North 8.1 mph - 0.02 in   Overcast
1:55 PM 37.4 °F 30.8 °F 32.0 °F 81% 29.87 in 10.0 mi North 9.2 mph 18.4 mph 0.02 in   Overcast
2:15 PM 37.4 °F 30.3 °F 32.0 °F 81% 29.88 in 10.0 mi North 10.4 mph 16.1 mph N/A   Overcast
2:35 PM 37.4 °F 32.8 °F 33.8 °F 87% 29.88 in 7.0 mi North 5.8 mph - 0.01 in   Overcast
2:55 PM 37.4 °F 31.4 °F 33.8 °F 87% 29.88 in 10.0 mi North 8.1 mph - 0.01 in   Overcast
3:15 PM 37.4 °F 32.8 °F 33.8 °F 87% 29.87 in 10.0 mi North 5.8 mph - N/A   Overcast
3:35 PM 37.4 °F 32.1 °F 33.8 °F 87% 29.87 in 10.0 mi NNW 6.9 mph - 0.01 in   Overcast
3:55 PM 37.4 °F 31.4 °F 33.8 °F 87% 29.87 in 10.0 mi North 8.1 mph - 0.01 in   Overcast
4:15 PM 35.6 °F 28.0 °F 33.8 °F 93% 29.86 in 10.0 mi NNW 10.4 mph - N/A   Overcast
4:35 PM 35.6 °F 28.6 °F 33.8 °F 93% 29.86 in 10.0 mi North 9.2 mph 16.1 mph N/A   Overcast
4:55 PM 35.6 °F 27.5 °F 33.8 °F 93% 29.86 in 7.0 mi NNW 11.5 mph 17.3 mph 0.01 in   Overcast
5:15 PM 35.6 °F 28.6 °F 33.8 °F 93% 29.86 in 5.0 mi NNW 9.2 mph - N/A   Overcast
5:35 PM 35.6 °F 30.7 °F 33.8 °F 93% 29.86 in 7.0 mi NNW 5.8 mph - 0.01 in   Overcast
5:55 PM 35.6 °F 29.9 °F 33.8 °F 93% 29.87 in 5.0 mi NNW 6.9 mph - 0.01 in   Overcast
6:15 PM 35.6 °F 29.2 °F 33.8 °F 93% 29.87 in 5.0 mi NNW 8.1 mph - N/A   Overcast
6:35 PM 35.6 °F 29.9 °F 33.8 °F 93% 29.87 in 4.0 mi NW 6.9 mph 17.3 mph 0.01 in   Overcast
6:55 PM 35.6 °F 28.6 °F 33.8 °F 93% 29.87 in 5.0 mi NNW 9.2 mph - 0.01 in   Overcast
7:15 PM 35.6 °F 29.9 °F 33.8 °F 93% 29.87 in 5.0 mi NNW 6.9 mph - N/A   Overcast
7:35 PM 35.6 °F 29.9 °F 33.8 °F 93% 29.87 in 5.0 mi NNW 6.9 mph - 0.01 in   Overcast
7:55 PM 35.6 °F 31.7 °F 33.8 °F 93% 29.86 in 5.0 mi NNW 4.6 mph - 0.01 in   Overcast
8:15 PM 35.6 °F 29.2 °F 33.8 °F 93% 29.87 in 7.0 mi NNW 8.1 mph - N/A   Overcast
8:35 PM 35.6 °F 31.7 °F 33.8 °F 93% 29.87 in 10.0 mi NNW 4.6 mph - 0.01 in   Overcast
8:55 PM 35.6 °F 30.7 °F 33.8 °F 93% 29.87 in 7.0 mi NNW 5.8 mph - 0.01 in   Overcast
9:15 PM 35.6 °F 29.2 °F 33.8 °F 93% 29.86 in 10.0 mi NNW 8.1 mph - N/A   Overcast
9:35 PM 35.6 °F 31.7 °F 33.8 °F 93% 29.86 in 7.0 mi NNW 4.6 mph - N/A   Overcast
9:55 PM 35.6 °F 28.6 °F 33.8 °F 93% 29.85 in 10.0 mi NNW 9.2 mph - N/A   Overcast
10:15 PM 35.6 °F 28.0 °F 33.8 °F 93% 29.85 in 10.0 mi NNW 10.4 mph - N/A   Overcast
10:35 PM 35.6 °F 28.6 °F 32.0 °F 87% 29.84 in 7.0 mi NW 9.2 mph 16.1 mph N/A   Overcast
10:55 PM 33.8 °F 26.4 °F 32.0 °F 93% 29.83 in 7.0 mi NNW 9.2 mph 19.6 mph N/A   Overcast
11:15 PM 33.8 °F 27.7 °F 32.0 °F 93% 29.83 in 7.0 mi NNW 6.9 mph 18.4 mph N/A   Overcast
11:35 PM 33.8 °F 26.4 °F 32.0 °F 93% 29.82 in 5.0 mi NNW 9.2 mph 19.6 mph N/A   Overcast
11:55 PM 35.6 °F 30.7 °F 32.0 °F 87% 29.82 in 10.0 mi NNW 5.8 mph - N/A   Overcast